GW0795 Weather Reports


time (UTC)temp
F
wind
direction
speed
knots
gust
knots
rain 1hr
in
rain 24hr
in
rain mn
in
humidity
%
barometer
mb
20260505040014 60 220 0.0 1.7 0.00 0.00 0.00 73 1010.8
20260505035508 61 207 0.0 1.7 0.00 0.00 0.00 72 1010.7
20260505035008 61 203 0.9 1.7 0.00 0.00 0.00 72 1010.7
20260505034518 62 200 0.9 1.7 0.00 0.00 0.00 71 1010.6
20260505034010 62 209 0.0 1.7 0.00 0.00 0.00 70 1010.6
20260505033508 62 211 0.0 1.7 0.00 0.00 0.00 71 1010.4
20260505033013 63 183 0.0 1.7 0.00 0.00 0.00 70 1010.2
20260505032502 63 173 0.0 1.7 0.00 0.00 0.00 69 1010.2
20260505032002 64 158 0.0 1.7 0.00 0.00 0.00 68 1010.1
20260505031507 64 158 0.0 1.7 0.00 0.00 0.00 67 1010.1
20260505031008 65 158 0.0 1.7 0.00 0.00 0.00 66 1010.1
20260505030508 65 158 0.0 1.7 0.00 0.00 0.00 65 1010.0
20260505030011 66 138 0.0 0.9 0.00 0.00 0.00 64 1010.0
20260505025504 66 138 0.0 1.7 0.00 0.00 0.00 64 1010.0
20260505025006 67 221 0.0 1.7 0.00 0.00 0.00 63 1009.9
20260505024514 67 221 0.0 0.9 0.00 0.00 0.00 63 1009.9
20260505024008 67 155 0.0 0.9 0.00 0.00 0.00 62 1009.9
20260505023508 67 155 0.0 1.7 0.00 0.00 0.00 61 1009.9
20260505023018 68 195 0.0 1.7 0.00 0.00 0.00 60 1009.8
20260505022510 69 212 0.9 1.7 0.00 0.00 0.00 59 1009.8
20260505022009 69 213 0.0 1.7 0.00 0.00 0.00 57 1009.8
20260505021506 70 213 0.0 1.7 0.00 0.00 0.00 57 1009.8
20260505021004 70 213 0.0 1.7 0.00 0.00 0.00 56 1009.8
20260505020506 70 206 0.0 2.6 0.00 0.00 0.00 56 1009.8
20260505020008 70 206 0.0 2.6 0.00 0.00 0.00 56 1009.8
20260505015506 71 352 0.0 1.7 0.00 0.00 0.00 56 1009.8
20260505015005 71 330 0.0 1.7 0.00 0.00 0.00 54 1009.8
20260505014515 71 205 0.0 1.7 0.00 0.00 0.00 55 1009.9
20260505014007 72 273 0.0 1.7 0.00 0.00 0.00 55 1009.8
20260505013507 73 290 0.0 2.6 0.00 0.00 0.00 54 1009.8
20260505013017 73 200 0.0 2.6 0.00 0.00 0.00 54 1009.8
20260505012506 73 132 0.9 2.6 0.00 0.00 0.00 54 1009.7
20260505012011 73 181 0.0 5.2 0.00 0.00 0.00 54 1009.7
20260505011525 74 305 0.9 5.2 0.00 0.00 0.00 52 1009.7
20260505011010 74 127 0.0 2.6 0.00 0.00 0.00 52 1009.7
20260505010507 75 127 0.0 2.6 0.00 0.00 0.00 52 1009.7
20260505010008 75 190 0.9 1.7 0.00 0.00 0.00 52 1009.8
20260505005504 75 194 0.0 2.6 0.00 0.00 0.00 51 1009.8
20260505005004 75 207 0.0 4.3 0.00 0.00 0.00 51 1009.8
20260505004523 74 242 0.9 4.3 0.00 0.00 0.00 51 1009.8
20260505004007 75 169 0.0 2.6 0.00 0.00 0.00 51 1009.8
20260505003510 75 116 0.9 2.6 0.00 0.00 0.00 49 1009.8
20260505003017 75 291 0.9 2.6 0.00 0.00 0.00 50 1009.8
20260505002508 75 324 0.0 2.6 0.00 0.00 0.00 52 1009.8
20260505002008 75 114 0.0 4.3 0.00 0.00 0.00 51 1009.8
20260505001523 75 228 0.9 4.3 0.00 0.00 0.00 51 1009.8
20260505001013 75 306 0.9 4.3 0.00 0.00 0.00 49 1009.8
20260505000508 75 192 1.7 4.3 0.00 0.00 0.00 50 1009.8
20260505000025 75 5 0.9 3.5 0.00 0.00 0.00 51 1009.8
20260504235508 75 183 1.7 3.5 0.00 0.00 0.00 50 1009.8
20260504235008 75 311 0.9 2.6 0.00 0.00 0.00 51 1009.8
20260504234517 75 213 0.9 2.6 0.00 0.00 0.00 51 1009.8
20260504234005 75 198 0.0 3.5 0.00 0.00 0.00 51 1009.8
20260504233509 75 197 0.9 3.5 0.00 0.00 0.00 51 1009.8
20260504233016 75 183 0.9 4.3 0.00 0.00 0.00 50 1009.7
20260504232505 76 222 1.7 4.3 0.00 0.00 0.00 49 1009.8
20260504232008 76 201 1.7 5.2 0.00 0.00 0.00 49 1009.7
20260504231536 75 200 1.7 5.2 0.00 0.00 0.00 49 1009.8
20260504231007 77 189 1.7 4.3 0.00 0.00 0.00 48 1009.8
20260504230507 76 148 0.0 2.6 0.00 0.00 0.00 48 1009.8
20260504230025 76 337 0.9 5.2 0.00 0.00 0.00 49 1009.9
20260504225513 76 186 1.7 5.2 0.00 0.00 0.00 46 1010.0
20260504225009 76 193 0.9 4.3 0.00 0.00 0.00 47 1010.1
20260504224528 75 194 0.9 6.1 0.00 0.00 0.00 46 1010.3
20260504224007 76 197 2.6 6.1 0.00 0.00 0.00 44 1010.4
20260504223512 76 178 0.9 4.3 0.00 0.00 0.00 44 1010.6
20260504223014 75 140 1.7 4.3 0.00 0.00 0.00 46 1010.5
20260504222507 75 192 0.9 4.3 0.00 0.00 0.00 44 1010.6
20260504222006 76 217 1.7 6.1 0.00 0.00 0.00 47 1010.6
20260504221517 76 175 1.7 6.1 0.00 0.00 0.00 46 1010.7
20260504221008 74 131 1.7 5.2 0.00 0.00 0.00 45 1010.7
20260504220508 75 5 1.7 5.2 0.00 0.00 0.00 47 1010.8
20260504220024 75 182 1.7 5.2 0.00 0.00 0.00 45 1010.8
20260504215507 76 168 0.9 5.2 0.00 0.00 0.00 48 1010.8
20260504215012 76 169 1.7 4.3 0.00 0.00 0.00 45 1010.9
20260504214534 75 233 0.9 6.1 0.00 0.00 0.00 46 1010.9
20260504214012 75 319 2.6 6.1 0.00 0.00 0.00 44 1010.9
20260504213514 75 19 0.9 4.3 0.00 0.00 0.00 46 1010.8
20260504213030 76 114 0.9 3.5 0.00 0.00 0.00 47 1010.9
20260504212511 75 234 0.9 3.5 0.00 0.00 0.00 50 1010.9
20260504212013 75 193 1.7 3.5 0.00 0.00 0.00 48 1011.0
20260504211514 75 125 1.7 4.3 0.00 0.00 0.00 49 1011.1
20260504211007 74 192 1.7 4.3 0.00 0.00 0.00 51 1011.2
20260504210507 74 186 1.7 4.3 0.00 0.00 0.00 51 1011.2
20260504210007 74 109 0.9 2.6 0.00 0.00 0.00 52 1011.2
20260504205504 75 202 0.9 4.3 0.00 0.00 0.00 51 1011.2
20260504205003 73 59 0.9 6.1 0.00 0.00 0.00 53 1011.2
20260504204505 72 130 1.7 5.2 0.00 0.00 0.00 51 1011.3
20260504204003 71 212 1.7 5.2 0.00 0.00 0.00 52 1011.3
20260504203503 73 181 0.9 4.3 0.00 0.00 0.00 52 1011.3
20260504203012 73 194 0.0 4.3 0.00 0.00 0.00 53 1011.3
20260504202503 72 261 0.9 2.6 0.00 0.00 0.00 53 1011.2
20260504202007 72 207 0.9 4.3 0.00 0.00 0.00 54 1011.2
20260504201503 71 205 0.9 5.2 0.00 0.00 0.00 54 1011.1
20260504201007 70 109 0.9 6.1 0.00 0.00 0.00 56 1011.2
20260504200503 70 205 2.6 6.1 0.00 0.00 0.00 54 1011.3
20260504200008 70 194 1.7 7.0 0.00 0.00 0.00 57 1011.3
20260504195506 70 217 3.5 7.0 0.00 0.00 0.00 54 1011.4
20260504195002 70 194 1.7 6.1 0.00 0.00 0.00 54 1011.4
20260504194508 70 214 1.7 5.2 0.00 0.00 0.00 56 1011.4
20260504194004 70 254 1.7 5.2 0.00 0.00 0.00 56 1011.4
20260504193504 69 223 1.7 6.1 0.00 0.00 0.00 55 1011.4
20260504193017 69 239 2.6 7.0 0.00 0.00 0.00 54 1011.4
20260504192503 70 168 1.7 7.0 0.00 0.00 0.00 56 1011.4
20260504192012 70 216 1.7 6.1 0.00 0.00 0.00 53 1011.6
20260504191511 70 325 1.7 4.3 0.00 0.00 0.00 54 1011.6
20260504191006 70 178 1.7 5.2 0.00 0.00 0.00 56 1011.6
20260504190507 69 221 2.6 7.8 0.00 0.00 0.00 54 1011.5
20260504190003 69 278 0.9 7.8 0.00 0.00 0.00 56 1011.6
20260504185500 69 215 1.7 7.8 0.00 0.00 0.00 58 1011.6
20260504185002 69 228 1.7 4.3 0.00 0.00 0.00 57 1011.7
20260504184505 69 178 0.9 4.3 0.00 0.00 0.00 60 1011.7
20260504184004 68 244 1.7 5.2 0.00 0.00 0.00 59 1011.8
20260504183502 68 194 0.9 5.2 0.00 0.00 0.00 61 1011.7
20260504183005 67 208 0.9 6.1 0.00 0.00 0.00 59 1011.7
20260504182504 67 165 2.6 6.1 0.00 0.00 0.00 60 1011.8
20260504182008 67 140 1.7 4.3 0.00 0.00 0.00 59 1011.8
20260504181510 68 223 0.9 4.3 0.00 0.00 0.00 60 1011.8
20260504181004 67 194 1.7 5.2 0.00 0.00 0.00 61 1011.8
20260504180509 67 130 2.6 5.2 0.00 0.00 0.00 58 1011.8
20260504180014 66 187 0.9 3.5 0.00 0.00 0.00 60 1011.9
20260504175507 67 256 0.9 7.0 0.00 0.00 0.00 59 1011.9
20260504175007 65 223 0.9 7.0 0.00 0.00 0.00 63 1011.8
20260504174504 64 200 2.6 6.1 0.00 0.00 0.00 63 1011.8
20260504174002 64 219 0.9 6.1 0.00 0.00 0.00 64 1011.8
20260504173504 65 208 1.7 6.1 0.00 0.00 0.00 61 1011.8
20260504173002 65 175 0.9 5.2 0.00 0.00 0.00 63 1011.7
20260504172504 64 203 0.9 7.0 0.00 0.00 0.00 65 1011.6
20260504172006 63 169 2.6 7.0 0.00 0.00 0.00 66 1011.6
20260504171528 63 150 1.7 7.0 0.00 0.00 0.00 64 1011.7
20260504171007 63 182 2.6 7.8 0.00 0.00 0.00 64 1011.6
20260504170506 62 144 2.6 7.8 0.00 0.00 0.00 64 1011.6
20260504151004 59 163 0.9 4.3 0.00 0.00 0.00 70 1010.9
20260504150504 59 178 1.7 3.5 0.00 0.00 0.00 71 1010.9
20260504141011 55 27 0.0 0.0 0.00 0.00 0.00 80 1010.5
20260504140508 54 27 0.0 0.0 0.00 0.00 0.00 81 1010.6
20260504130511 52 62 0.0 0.0 0.00 0.00 0.00 82 1009.9
20260504110509 53 84 0.0 0.0 0.00 0.00 0.00 78 1009.7
20260504100504 55 84 0.0 0.0 0.00 0.00 0.00 73 1009.7
20260504082004 58 84 0.0 0.0 0.00 0.00 0.00 66 1009.6
20260504081523 58 84 0.0 0.0 0.00 0.00 0.00 66 1009.6
20260504081004 58 84 0.0 0.0 0.00 0.00 0.00 65 1009.6
20260504080503 58 84 0.0 0.0 0.00 0.00 0.00 66 1009.7
20260504050507 68 43 0.0 0.0 0.00 0.00 0.00 47 1009.6
20260504045504 68 43 0.0 0.0 0.00 0.00 0.00 45 1009.7
20260504045006 68 43 0.0 0.0 0.00 0.00 0.00 45 1009.7
20260504044523 68 43 0.0 0.0 0.00 0.00 0.00 45 1009.7
20260504044009 69 43 0.0 0.0 0.00 0.00 0.00 44 1009.8
20260504043507 69 43 0.0 0.0 0.00 0.00 0.00 43 1009.6
20260504043018 69 74 0.0 0.9 0.00 0.00 0.00 43 1009.6
20260504042507 69 77 0.0 2.6 0.00 0.00 0.00 44 1009.6
20260504042007 69 14 0.9 2.6 0.00 0.00 0.00 44 1009.5
20260504041528 69 90 0.0 1.7 0.00 0.00 0.00 45 1009.5
20260504041008 70 53 0.0 1.7 0.00 0.00 0.00 44 1009.5
20260504040507 70 34 0.0 1.7 0.00 0.00 0.00 44 1009.5